Startseite
Über Mich
AHP4
Galerie
Sehschlangen
Tourenbuch
Bookmarks
Elektronik
Bewertung
Geschichten
[Tagesmessung] [Jahreswerte] [Information]

Messwerte vom 11.02.2022

Die letzten Messwerte von 23:58:47 Uhr:
KategorieMesswert
Temperatur [°C]-2
Luftdruck [mBar]1017
Sonneneinstrahlung0
Wind [km/h]0 aus Süd
Niederschlag [l/m²]0
rel.Luftfeucht.96.6%
CO2 [ppm]515

Diagramme
Messwerte vom 11.02.2022
Tagesaggregation
KategorieMinimumMaximumSchnittSumme
Temperatur [°C]-352.3333
Luftdruck [mBar]100210171006.8646
Sonneneinstrahlung21865.6667
Wind [km/h]30
rF [%]9596.696.57
Niederschlag [l/m²]2.8325
CO2 [ppm]501682578.6
Einordnung alsFrosttag
Kalter Tag

Messungen an benachbarten Tagen: Zur Jahresaggregation 2022
Tabelle aller Messwerte
UhrzeitTemperatur [°C]Luftdruck [mBar]SonneWind [km/h]RichtungRegen [l/m²]rF [%]CO2 [ppm]
00:01:46 4 1002 0 4 S 0 96.6 562
00:04:47 4 1002 0 0 N 0 96.6 566
00:07:47 4 1003 0 3 SO 0 96.6 569
00:10:48 4 1002 0 2 S 0 96.6 562
00:13:48 4 1002 0 0 SO 0 96.6 559
00:16:47 4 1002 0 3 SW 0 96.6 554
00:19:49 4 1002 0 2 N 0 96.6 556
00:22:47 4 1002 0 0 S 0 96.6 556
00:25:49 4 1002 0 3 SW 0 96.6 568
00:28:48 4 1002 0 4 S 0 96.6 565
00:31:46 4 1002 0 3 O 0 96.6 565
00:34:47 4 1002 0 1 S 0 96.6 562
00:37:46 4 1002 0 4 W 0 96.6 559
00:40:49 4 1003 0 2 SW 0 96.6 569
00:43:47 4 1002 0 1 N 0 96.6 559
00:46:47 4 1002 0 3 S 0 96.6 557
00:49:48 4 1003 0 2 W 0 96.6 554
00:52:47 4 1002 0 2 S 0 96.6 563
00:55:46 4 1002 0 3 O 0 96.6 563
00:58:49 4 1002 0 0 SO 0 96.6 570
01:01:48 4 1003 0 6 S 0 96.6 568
01:04:49 4 1003 0 1 NO 0 96.6 577
01:07:47 4 1002 0 1 SW 0 96.6 571
01:10:47 4 1002 0 1 S 0 96.6 568
01:13:49 4 1003 0 5 SW 0 96.6 560
01:16:47 4 1003 0 3 SW 0 96.6 559
01:19:48 4 1002 0 4 SW 0 96.6 560
01:22:48 4 1002 0 0 O 0 96.6 556
01:25:48 3 1002 0 0 NW 0 96.6 556
01:28:46 3 1003 0 1 SO 0 96.6 551
01:31:47 3 1002 0 0 S 0 96.6 560
01:34:49 3 1002 0 0 NW 0 96.6 564
01:37:46 4 1003 0 2 SW 0 96.6 570
01:40:48 4 1002 0 1 NW 0 96.6 577
01:43:46 4 1002 0 0 S 0 96.6 577
01:46:46 4 1003 0 0 S 0 96.6 570
01:49:46 4 1003 0 0 SW 0 96.6 579
01:52:45 4 1002 0 0 S 0 96.6 568
01:55:44 4 1002 0 0 S 0 96.6 573
01:58:47 4 1002 0 0 S 0 96.6 565
02:01:48 4 1002 0 2 NO 0 96.6 565
02:04:46 3 1002 0 1 SW 0 96.6 563
02:07:48 4 1002 0 0 SO 0 96.6 562
02:10:46 3 1002 0 1 S 0 96.6 560
02:13:49 3 1002 0 0 SO 0 96.6 562
02:16:45 3 1002 0 1 SO 0 96.6 565
02:19:48 4 1002 0 0 W 0 96.6 565
02:22:48 4 1002 0 0 NO 0 96.6 568
02:25:46 4 1002 0 3 S 0 96.6 565
02:28:47 4 1002 0 1 NW 0 96.6 565
02:31:49 4 1002 0 5 SW 0 96.6 569
02:34:49 4 1002 0 2 SW 0 96.6 572
02:37:45 4 1002 0 0 O 0 96.6 577
02:40:46 3 1002 0 0 O 0 96.6 571
02:43:49 3 1003 0 1 SO 0 96.6 572
02:46:47 3 1002 0 0 SO 0 96.6 569
02:49:48 3 1002 0 2 SW 0 96.6 569
02:52:48 3 1002 0 0 O 0 96.6 571
02:55:48 3 1002 0 0 NW 0 96.6 574
02:58:48 3 1002 0 1 S 0 96.6 565
03:01:46 3 1003 0 0 S 0 96.6 559
03:04:48 3 1002 0 0 NW 0 96.6 562
03:07:48 3 1002 0 0 SO 0 96.6 560
03:10:47 3 1002 0 0 O 0 96.6 562
03:13:47 3 1002 0 1 W 0 96.6 559
03:16:47 3 1002 0 0 SO 0 96.6 560
03:19:47 3 1002 0 4 W 0 96.6 560
03:22:46 3 1002 0 3 N 0 96.6 562
03:25:47 3 1002 0 3 NW 0 96.6 562
03:28:47 3 1002 0 2 SO 0 96.6 565
03:31:47 3 1002 0 1 S 0 96.6 568
03:34:45 3 1002 0 1 S 0 96.6 571
03:37:47 3 1002 0 2 SW 0 96.6 563
03:40:49 3 1002 0 1 S 0 96.6 564
03:43:48 3 1002 0 2 SO 0 96.6 565
03:46:46 3 1002 0 3 NW 0 96.6 560
03:49:49 3 1002 0 0 SO 0 96.6 562
03:52:46 3 1002 0 0 S 0 96.6 565
03:55:47 3 1002 0 2 W 0 96.6 568
03:58:48 3 1002 0 0 SW 0 96.6 568
04:01:45 3 1002 0 1 W 0 96.6 574
04:04:47 3 1002 0 2 S 0 96.6 574
04:07:48 3 1002 0 1 SW 0 96.6 579
04:10:46 3 1002 0 0 S 0 96.6 580
04:13:47 3 1002 0 1 SW 0 96.6 592
04:16:47 3 1002 0 1 O 0 96.6 588
04:19:46 3 1002 0 1 S 0 96.6 583
04:22:46 3 1002 0 1 O 0 96.6 574
04:25:47 3 1002 0 5 S 0 96.6 577
04:28:47 3 1002 0 4 SO 0 96.6 574
04:31:45 3 1002 0 1 S 0 96.6 573
04:34:47 3 1002 0 1 W 0 96.6 577
04:37:45 3 1002 0 2 SW 0 96.6 576
04:40:45 3 1002 0 2 N 0 96.6 577
04:43:45 3 1002 0 0 NO 0 96.6 577
04:46:46 3 1002 0 0 NW 0 96.6 576
04:49:46 3 1002 0 1 SO 0 96.6 574
04:52:46 3 1002 0 2 SO 0 96.6 583
04:55:45 3 1002 0 1 S 0 96.6 577
04:58:47 3 1002 0 0 S 0 96.6 579
05:01:52 3 1002 0 1 SW 0 96.6 582
05:04:49 3 1002 0 0 SO 0 96.6 584
05:07:49 3 1002 0 4 NW 0 96.6 586
05:10:48 3 1002 0 4 SW 0 96.6 580
05:13:48 3 1002 0 2 SW 0 96.6 586
05:16:48 3 1002 0 3 SW 0 96.6 582
05:19:47 3 1002 0 2 SW 0 96.6 578
05:22:48 3 1002 0 2 SW 0 96.6 577
05:25:45 3 1002 0 3 S 0 96.6 579
05:28:51 3 1002 0 3 SO 0 96.6 579
05:31:48 3 1002 0 2 SO 0 96.6 577
05:34:48 3 1002 0 6 S 0 96.6 574
05:37:47 3 1002 0 4 SW 0 96.6 582
05:40:46 3 1002 0 4 S 0 96.6 586
05:43:46 3 1002 0 3 S 0 96.6 585
05:46:48 3 1002 0 5 NW 0 96.6 588
05:49:48 3 1002 0 3 W 0 96.6 592
05:52:47 3 1002 0 1 S 0 96.6 597
05:55:48 3 1002 0 5 SO 0 96.6 596
05:58:47 3 1002 0 2 O 0 96.6 596
06:01:49 3 1002 0 3 W 0 96.6 592
06:04:46 3 1002 0 2 S 0 96.6 586
06:07:50 2 1002 0 1 S 0 96.6 592
06:10:48 2 1002 0 3 W 0 96.6 594
06:13:47 2 1002 0 2 SO 0 96.6 594
06:16:47 2 1002 0 4 S 0 96.6 596
06:19:48 2 1002 0 2 O 0 96.6 600
06:22:47 2 1002 0 3 SW 0 96.6 603
06:25:47 2 1002 0 1 SO 0 96.6 600
06:28:47 2 1002 0 2 SO 0 96.6 597
06:31:49 2 1002 0 1 SW 0 96.6 590
06:34:48 2 1002 0 2 SW 0 96.6 594
06:37:47 2 1002 0 1 NO 0 96.6 595
06:40:45 2 1002 0 1 S 0 96.6 597
06:43:45 3 1002 0 4 S 0 96.6 597
06:46:46 2 1002 0 3 S 0 96.6 601
06:49:46 2 1002 0 4 SO 0 96.6 604
06:52:49 2 1002 0 8 SW 0 96.6 597
06:55:46 2 1002 0 1 SW 0 96.6 597
06:58:47 2 1002 0 7 S 0 96.6 596
07:01:48 2 1002 0 2 SO 0 96.6 601
07:04:47 2 1002 0 3 S 0 96.6 595
07:07:47 2 1002 0 6 SO 0 96.6 597
07:10:48 2 1002 0 3 W 0 96.6 607
07:13:48 2 1002 0 5 S 0 96.6 622
07:16:47 2 1002 4 10 S 0 96.6 636
07:19:47 2 1002 6 3 S 0 96.6 647
07:22:47 2 1002 10 6 S 0 96.6 655
07:25:49 2 1002 16 0 SW 0 96.6 668
07:28:48 1 1002 22 6 SO 0 96.6 671
07:31:47 2 1002 30 3 SO 0 96.6 673
07:34:49 2 1002 41 5 SW 0 96.6 671
07:37:48 2 1002 54 8 SW 0 96.6 679
07:40:48 2 1002 63 1 SO 0 96.6 680
07:43:48 2 1002 70 6 SO 0 96.6 682
07:46:48 2 1002 88 3 S 0 96.6 671
07:49:46 2 1002 114 7 SO 0 96.6 664
07:52:48 2 1002 127 2 S 0 96.6 668
07:55:50 2 1002 135 6 S 0 96.6 673
07:58:48 2 1002 145 3 SW 0 96.6 677
08:01:51 2 1002 143 1 NO 0 96.6 668
08:04:49 2 1002 120 3 SW 0 96.6 653
08:07:50 2 1002 114 3 SW 0 96.5 659
08:10:46 2 1002 112 3 S 0 96.2 656
08:13:50 2 1002 101 5 SO 0 95.6 642
08:16:50 3 1002 102 4 SO 0 95.2 632
08:19:50 3 1002 91 3 SO 0 95 638
08:22:47 3 1002 86 4 O 0 95 633
08:25:49 3 1002 80 4 NO 0.2575 95.1 633
08:28:49 2 1002 68 2 S 0 95.9 628
08:31:47 2 1002 73 4 S 0.2575 96.1 630
08:34:46 2 1002 73 3 S 0 96.6 626
08:37:49 2 1002 68 1 S 0 96.6 629
08:40:47 1 1002 61 3 S 0.2575 96.6 630
08:43:49 1 1002 68 0 SO 0 96.6 624
08:46:47 1 1002 83 1 S 0 96.6 609
08:49:49 1 1002 88 2 SO 0 96.6 609
08:52:49 1 1002 92 0 SW 0 96.6 610
08:55:49 1 1002 110 0 0 96.6 612
08:58:50 1 1002 127 0 SW 0 96.6 609
09:01:47 1 1002 125 1 S 0 96.6 597
09:04:49 1 1002 118 4 SO 0.2575 96.6 584
09:07:49 1 1002 125 5 SO 0 96.6 582
09:10:50 1 1002 128 5 S 0 96.6 589
09:13:50 1 1002 128 2 SW 0 96.6 588
09:16:49 1 1002 150 4 S 0 96.6 578
09:19:48 1 1002 161 5 SO 0 96.6 562
09:22:47 2 1003 141 1 SO 0 96.6 557
09:25:49 2 1002 136 0 SO 0.2575 96.6 560
09:28:50 2 1002 127 2 SO 0 96.6 571
09:31:48 2 1002 134 1 SO 0 96.6 577
09:34:48 2 1002 125 2 SO 0 96.6 584
09:37:49 2 1003 129 1 SO 0 96.6 585
09:40:51 2 1003 171 2 W 0 96.6 591
09:43:46 2 1002 159 5 S 0 96.6 597
09:46:47 2 1002 160 3 W 0 96.6 592
09:49:47 2 1003 153 0 W 0 96.6 588
09:52:48 2 1002 142 2 N 0 96.6 592
09:55:48 3 1002 147 6 SO 0 96.6 609
09:58:48 3 1002 158 3 W 0 96.6 607
10:01:48 3 1002 171 5 SW 0 96.6 597
10:04:52 3 1003 152 4 O 0 96.6 603
10:07:50 3 1003 164 2 W 0 96.6 607
10:10:49 3 1002 156 6 SO 0 96.6 609
10:13:47 3 1003 169 7 O 0 96.6 609
10:16:47 3 1002 164 2 S 0 96.6 606
10:19:51 3 1003 174 2 SW 0 96.6 609
10:22:47 3 1002 171 6 S 0 96.6 612
10:25:49 3 1002 189 10 SO 0 96.6 617
10:28:49 3 1002 197 5 SO 0 96.6 627
10:31:47 3 1002 194 2 N 0 96.6 627
10:34:47 3 1002 198 1 W 0 96.6 635
10:37:47 4 1002 193 4 SW 0 96.6 641
10:40:49 4 1002 195 4 S 0 96.6 639
10:43:48 4 1002 198 3 S 0 96.6 645
10:46:48 4 1002 198 1 NW 0 96.6 644
10:49:47 4 1003 199 2 SW 0 96.6 653
10:52:47 4 1003 212 6 S 0 96.6 653
10:55:47 4 1003 214 6 W 0 96.6 650
10:58:47 4 1002 218 2 SW 0 96.6 646
11:01:47 4 1002 217 4 W 0 96.6 648
11:04:46 4 1002 206 2 S 0 96.6 647
11:07:50 4 1003 205 9 SW 0 96.6 636
11:10:47 4 1003 198 3 NO 0 96.6 635
11:13:48 4 1002 188 9 S 0 96.6 633
11:16:46 4 1003 192 5 S 0 96.6 636
11:19:46 4 1002 199 1 S 0 96.6 639
11:22:48 4 1003 204 6 SW 0 96.6 649
11:26:24 4 1003 197 4 SO 0 96.6 651
11:28:47 4 1003 196 5 W 0.2575 96.6 648
11:31:47 4 1003 189 1 SO 0 96.6 653
11:34:49 4 1003 183 3 SO 0 96.6 656
11:37:51 4 1003 186 0 SW 0.2575 96.6 651
11:40:48 4 1003 188 2 NW 0 96.6 658
11:43:49 4 1003 199 7 SO 0 96.6 655
11:46:47 4 1003 196 4 W 0 96.6 655
11:49:47 4 1003 198 5 SW 0 96.6 654
11:52:49 4 1004 194 15 SO 0 96.6 651
11:55:50 4 1004 200 16 S 0 96.6 650
11:58:47 4 1004 196 7 S 0 96.6 641
12:01:47 4 1004 196 1 NO 0 96.6 641
12:04:46 4 1003 194 4 S 0.2575 96.6 633
12:07:48 4 1003 192 4 N 0 96.6 625
12:10:51 4 1003 189 4 NW 0 96.6 627
12:13:48 4 1003 194 3 NW 0 96.6 627
12:16:48 4 1004 195 3 W 0 96.6 642
12:19:47 4 1003 191 7 W 0 96.6 657
12:22:50 4 1004 196 7 W 0 96.6 666
12:25:49 4 1004 194 4 NW 0 96.6 663
12:28:47 4 1003 201 1 W 0 96.6 655
12:31:48 4 1004 201 5 NW 0 96.6 656
12:34:48 4 1004 213 12 W 0 96.6 656
12:37:50 4 1004 216 3 W 0 96.6 661
12:40:51 4 1004 209 12 NW 0 96.6 661
12:43:49 4 1004 206 12 W 0 96.6 650
12:46:46 4 1004 194 4 W 0 96.6 644
12:49:47 4 1004 204 6 W 0 96.6 651
12:52:50 4 1004 192 4 NW 0 96.6 642
12:55:49 4 1004 203 11 SO 0 96.6 621
12:58:48 4 1004 204 13 W 0.2575 96.6 614
13:01:50 4 1004 201 7 S 0 96.6 621
13:04:48 4 1004 198 6 W 0 96.6 633
13:07:47 4 1004 200 6 SW 0 96.6 640
13:10:50 4 1005 196 5 SW 0 96.6 645
13:13:48 4 1005 195 9 W 0 96.6 650
13:16:49 4 1005 202 7 W 0 96.6 648
13:19:50 5 1005 205 7 NW 0 96.6 645
13:22:48 5 1005 201 6 NO 0 96.6 645
13:25:47 5 1005 199 6 N 0 96.6 639
13:28:49 5 1005 200 10 SW 0 96.6 638
13:31:50 5 1005 199 10 NW 0 96.6 636
13:34:48 5 1005 198 2 S 0 96.6 626
13:37:50 5 1005 196 4 NW 0 96.6 630
13:40:46 5 1005 197 7 W 0 96.6 636
13:43:49 5 1006 187 5 S 0 96.6 646
13:46:48 5 1005 194 6 W 0 96.6 653
13:49:51 5 1006 199 6 SW 0 96.6 645
13:52:48 5 1005 191 10 SW 0 96.6 651
13:55:48 5 1006 175 8 NW 0.2575 96.6 652
13:58:48 5 1006 181 3 NW 0 96.6 647
14:01:49 4 1006 202 6 NW 0 96.6 630
14:04:47 4 1006 214 4 N 0 96.6 618
14:07:48 4 1006 213 8 NO 0 96.6 632
14:10:53 5 1006 214 8 NW 0 96.6 645
14:13:48 5 1006 205 11 W 0 96.6 632
14:16:45 5 1006 205 4 N 0 96.6 627
14:19:48 5 1006 192 5 N 0 96.6 626
14:22:46 5 1006 179 6 N 0 96.6 627
14:25:49 5 1006 173 18 NW 0 96.6 620
14:28:47 4 1006 171 20 NO 0 96.6 609
14:31:47 4 1006 175 8 W 0 96.6 583
14:34:48 4 1006 197 7 NO 0 96.6 574
14:37:47 4 1006 200 7 NW 0 96.6 571
14:40:49 4 1006 173 14 NW 0 96.6 580
14:43:50 4 1007 186 21 NW 0 96.6 588
14:46:48 4 1007 173 20 W 0 96.6 586
14:49:47 4 1007 178 10 W 0 96.6 577
14:52:50 4 1007 200 13 N 0 96.6 569
14:55:48 4 1008 185 4 NO 0 96.6 563
14:58:46 4 1007 181 17 N 0 96.6 560
15:01:49 4 1008 198 10 O 0 96.6 562
15:04:47 4 1008 192 8 0 96.6 568
15:07:50 4 1007 173 11 NO 0 96.6 565
15:10:48 4 1007 162 6 NW 0 96.6 575
15:13:47 4 1009 182 12 W 0 96.6 571
15:16:48 4 1008 174 6 N 0 96.6 564
15:19:45 4 1009 184 1 NO 0 96.6 565
15:22:51 4 1008 210 19 NW 0 96.6 563
15:25:49 4 1009 200 15 NO 0 96.6 559
15:28:50 4 1009 177 3 NW 0 96.6 539
15:31:50 4 1009 157 13 NW 0 96.6 533
15:34:49 4 1009 154 4 NW 0 96.6 541
15:37:48 4 1009 169 10 W 0 96.6 552
15:40:49 4 1010 168 5 NW 0 96.6 551
15:43:50 4 1009 170 5 NW 0 96.6 563
15:46:48 4 1009 171 5 NW 0 96.6 562
15:49:48 4 1010 150 10 W 0 96.6 562
15:52:49 4 1010 123 15 NW 0 96.6 563
15:55:49 4 1010 104 6 NW 0 96.6 561
15:58:47 4 1009 95 9 W 0 96.6 565
16:01:46 4 1010 104 9 SW 0 96.6 556
16:04:49 4 1009 120 19 W 0 96.6 553
16:07:45 4 1010 119 3 W 0 96.6 539
16:10:49 4 1010 130 12 NW 0 96.6 549
16:13:48 4 1010 122 6 NW 0 96.6 541
16:16:48 4 1010 115 11 W 0 96.6 542
16:19:48 4 1010 130 12 S 0 96.6 525
16:22:49 4 1010 191 16 SW 0 96.6 521
16:25:48 4 1010 198 10 W 0 96.6 527
16:28:49 4 1010 195 10 NW 0 96.6 550
16:31:48 4 1010 198 8 NW 0 96.6 547
16:34:48 3 1010 194 6 NW 0 96.6 541
16:37:47 3 1010 185 8 W 0 96.6 548
16:40:47 3 1010 177 7 W 0 96.6 561
16:43:48 3 1010 135 5 W 0 96.6 563
16:46:46 3 1011 111 5 NW 0 96.6 556
16:49:49 3 1010 95 4 W 0 96.6 560
16:52:47 3 1010 84 2 SO 0 96.6 566
16:55:47 3 1010 88 3 W 0 96.6 571
16:58:47 3 1010 80 5 W 0 96.6 571
17:01:44 3 1010 80 5 0 96.6 571
17:04:49 3 1011 55 3 W 0 96.6 559
17:07:48 3 1010 57 1 SO 0 96.6 548
17:10:49 3 1011 46 8 W 0 96.6 553
17:13:47 3 1011 35 6 W 0.2575 96.6 553
17:16:46 3 1011 31 11 W 0 96.6 560
17:19:48 3 1011 26 11 W 0 96.6 556
17:22:47 3 1012 34 9 S 0 96.6 564
17:25:47 3 1012 23 13 N 0 96.6 565
17:28:50 3 1012 12 30 SW 0 96.6 559
17:31:47 3 1012 16 18 SW 0 96.6 553
17:34:48 3 1012 13 26 W 0 96.5 548
17:37:48 3 1013 15 9 NW 0 95.9 553
17:40:50 3 1012 10 12 NW 0 95.3 553
17:43:47 3 1012 6 5 NO 0 95.4 544
17:46:47 3 1012 4 11 NW 0 95.5 533
17:49:49 3 1013 0 11 NW 0 95.8 521
17:52:47 3 1013 0 3 N 0 95.8 518
17:55:46 3 1013 0 18 NW 0 96 512
17:58:46 3 1013 0 6 NO 0 96.2 507
18:01:46 3 1013 0 7 NW 0 96.3 507
18:04:48 3 1013 0 8 W 0 96.6 507
18:07:47 3 1013 0 6 NW 0 96.6 509
18:10:50 3 1013 0 13 NW 0 96.6 519
18:13:48 3 1013 0 6 NW 0 96.6 530
18:16:47 2 1013 0 8 NW 0 96.6 541
18:19:47 2 1013 0 16 W 0 96.6 536
18:22:46 2 1013 0 9 W 0 96.6 531
18:25:48 2 1013 0 2 NW 0 96.6 524
18:28:48 2 1013 0 12 W 0 96.6 525
18:31:47 2 1013 0 3 NW 0 96.6 521
18:34:47 2 1013 0 5 NW 0 96.6 527
18:37:47 2 1013 0 6 NO 0 96.6 543
18:40:46 2 1013 0 8 W 0 96.6 554
18:43:45 2 1013 0 3 W 0 96.6 545
18:46:47 2 1013 0 4 W 0 96.6 531
18:49:48 2 1013 0 4 W 0 96.6 521
18:52:45 2 1013 0 4 W 0 96.6 513
18:55:47 2 1013 0 3 NW 0 96.6 513
18:58:47 1 1013 0 3 W 0 96.6 504
19:01:48 1 1013 0 2 NW 0 96.6 510
19:04:49 1 1013 0 6 NW 0 96.6 516
19:07:47 1 1013 0 6 W 0 96.6 522
19:10:48 1 1013 0 2 W 0 96.6 527
19:13:49 1 1014 0 0 SW 0 96.6 528
19:16:47 1 1013 0 1 S 0 96.6 527
19:19:48 1 1014 0 8 SW 0 96.6 521
19:22:47 1 1014 0 2 NW 0 96.6 527
19:25:48 1 1013 0 4 W 0 96.6 533
19:28:45 1 1014 0 3 W 0 96.6 530
19:31:47 1 1014 0 3 SW 0 96.6 533
19:34:48 1 1014 0 2 SW 0 96.6 529
19:37:45 1 1014 0 4 W 0 96.6 533
19:40:45 0 1014 0 3 W 0 96.6 539
19:43:46 0 1015 0 4 S 0 96.6 536
19:46:46 0 1014 0 3 W 0 96.6 525
19:49:48 0 1014 0 4 SW 0 96.6 527
19:52:48 0 1014 0 2 SW 0 96.6 530
19:55:46 0 1015 0 2 W 0 96.6 533
19:58:47 0 1015 0 4 NW 0 96.6 542
20:01:48 0 1014 0 3 W 0 96.6 536
20:04:47 0 1015 0 1 SW 0 96.6 539
20:07:48 0 1014 0 0 SW 0 96.6 542
20:10:48 0 1015 0 2 SW 0 96.6 541
20:13:48 0 1015 0 2 SW 0 96.6 539
20:16:46 0 1016 0 1 NW 0 96.6 537
20:19:47 0 1015 0 3 W 0 96.6 539
20:22:48 0 1015 0 3 W 0 96.6 545
20:25:48 0 1015 0 2 SW 0 96.6 542
20:28:45 0 1016 0 2 W 0 96.6 544
20:31:50 0 1015 0 2 W 0 96.6 534
20:34:46 -1 1016 0 4 W 0 96.6 538
20:37:46 -1 1016 0 1 SW 0 96.6 536
20:40:47 -1 1016 0 1 S 0 96.6 530
20:43:47 -1 1016 0 1 SW 0 96.6 524
20:46:48 -1 1016 0 1 SW 0 96.6 530
20:49:46 -1 1016 0 0 S 0 96.6 539
20:52:51 -1 1016 0 0 NW 0 96.6 543
20:55:46 -1 1017 0 0 S 0 96.6 541
20:58:46 -1 1016 0 1 S 0 96.6 548
21:01:50 -1 1016 0 1 SW 0 96.6 550
21:04:47 -1 1017 0 0 W 0 96.6 551
21:07:47 -1 1016 0 1 SW 0 96.6 559
21:10:47 -1 1017 0 1 SW 0 96.6 559
21:13:47 -1 1017 0 2 W 0 96.6 560
21:16:47 -1 1016 0 2 W 0 96.6 556
21:19:48 -1 1016 0 0 SW 0 96.6 556
21:22:45 -1 1017 0 0 SW 0 96.6 563
21:25:48 -1 1017 0 0 SW 0 96.6 571
21:28:48 -1 1016 0 0 SW 0 96.6 576
21:31:46 -1 1017 0 1 NW 0 96.6 568
21:34:48 -1 1017 0 0 SW 0 96.6 565
21:37:47 -1 1017 0 1 SW 0 96.6 555
21:40:48 -1 1017 0 0 SW 0 96.6 563
21:43:47 -1 1016 0 0 NW 0 96.6 565
21:46:48 -1 1016 0 0 NW 0 96.6 571
21:49:47 -1 1017 0 0 NW 0 96.6 565
21:52:48 -1 1017 0 0 NW 0 96.6 569
21:55:46 -2 1016 0 0 NW 0 96.6 571
21:58:46 -2 1017 0 0 SW 0 96.6 501
22:01:47 -2 1017 0 0 SW 0 96.6 504
22:04:45 -2 1017 0 0 O 0 96.6 512
22:07:46 -2 1017 0 0 O 0 96.6 515
22:10:46 -2 1017 0 0 O 0 96.6 512
22:13:48 -2 1017 0 0 SW 0 96.6 504
22:16:46 -2 1016 0 0 SW 0 96.6 501
22:19:47 -2 1017 0 0 SW 0 96.6 509
22:22:46 -2 1017 0 1 W 0 96.6 510
22:25:45 -2 1017 0 1 S 0 96.6 515
22:28:49 -2 1017 0 0 SW 0 96.6 512
22:31:47 -2 1017 0 0 NO 0 96.6 509
22:34:47 -2 1017 0 1 W 0 96.6 504
22:37:48 -2 1017 0 0 SW 0 96.6 510
22:40:49 -2 1017 0 1 NW 0 96.6 518
22:43:49 -2 1017 0 0 NW 0 96.6 518
22:46:48 -2 1017 0 0 NW 0 96.6 518
22:49:47 -2 1017 0 3 SW 0 96.6 510
22:52:46 -2 1017 0 0 SW 0 96.6 518
22:55:46 -2 1017 0 0 S 0 96.6 521
22:58:47 -2 1017 0 2 S 0 96.6 524
23:01:48 -2 1017 0 0 SW 0 96.6 524
23:04:48 -2 1017 0 1 SW 0 96.6 518
23:07:46 -2 1017 0 0 W 0 96.6 512
23:10:47 -2 1017 0 0 W 0 96.6 516
23:13:46 -2 1017 0 0 S 0 96.6 516
23:16:45 -2 1017 0 0 S 0 96.6 521
23:19:46 -2 1017 0 0 S 0 96.6 515
23:22:49 -2 1017 0 0 S 0 96.6 515
23:25:45 -2 1017 0 0 S 0 96.6 515
23:28:49 -2 1017 0 0 S 0 96.6 518
23:31:46 -2 1017 0 0 S 0 96.6 519
23:34:46 -3 1017 0 0 S 0 96.6 524
23:37:47 -3 1017 0 0 S 0 96.6 525
23:40:46 -3 1017 0 0 S 0 96.6 531
23:43:47 -3 1017 0 0 S 0 96.6 531
23:46:46 -2 1017 0 0 S 0 96.6 536
23:49:47 -2 1017 0 0 S 0 96.6 537
23:52:47 -2 1017 0 0 S 0 96.6 530
23:55:49 -2 1017 0 0 S 0 96.6 519
23:58:47 -2 1017 0 0 S 0 96.6 515

Letzte Änderung : 22-Jul-2022
Copyright Jens Köhler, Wolfsburg, Obere Dorfstraße 10d